Atlanta, GA

3:02 AM EDT on May 22, 2018 (GMT -0400)
The Hartsfield Atlanta International

Weather History for KATL - November, 2012

Change the Weather History Date:

Monday, November 19, 2012

  Actual Average Record
Temperature  
Mean Temperature 54 °F 53 °F  
Max Temperature 60 °F 63 °F 80 °F (1942)
Min Temperature 47 °F 43 °F 18 °F (1903)
Degree Days  
Heating Degree Days 11 12  
Month to date heating degree days 222 182  
Since 1 July heating degree days 320 311  
Cooling Degree Days 0 0  
Month to date cooling degree days 0 11  
Year to date cooling degree days 2240 1883  
Growing Degree Days 3 (Base 50)    
Moisture  
Dew Point 46 °F    
Average Humidity 73    
Maximum Humidity 83    
Minimum Humidity 63    
Precipitation  
Precipitation T in 0.15 in 1.50 in (1948)
Month to date precipitation 1.65 2.47  
Year to date precipitation 31.08 44.18  
Snow  
Snow 0.00 in 0.00 in 0.00 in (2001)
Month to date snowfall 0.0 0.0  
Since 1 July snowfall 0.0 0.0  
Since 1 September snowfall 0.0 0.0  
Snow Depth -    
Sea Level Pressure  
Sea Level Pressure 30.27 in    
Wind  
Wind Speed 7 mph (NNE)    
Max Wind Speed 15 mph    
Max Gust Speed 18 mph    
Visibility 8 miles    
Events      
T = Trace of Precipitation, MM = Missing Value Source: NWS Daily Summary

Daily Weather History Graph

Daily Weather History Graph

Search for Another Location

Airport or City:

Astronomy

Nov. 19, 2012 Rise Set
Actual Time 7:13 AM EST 5:32 PM EST
Civil Twilight 6:47 AM EST 5:59 PM EST
Nautical Twilight 6:16 AM EST 6:29 PM EST
Astronomical Twilight 5:47 AM EST 6:59 PM EST
Moon 12:22 PM EST (11/19) 11:50 PM EST (11/19)
Length of Visible Light 11h 12m
Length of Day
10h 18m
Waxing Crescent, 40% of the Moon is Illuminated
Nov 19
Waxing Crescent
Nov 20
First Quarter
Nov 28
Full
Dec 6
Last Quarter
Dec 13
New

Hourly Weather History & Observations

Time (EST) Temp. Dew Point Humidity Pressure Visibility Wind Dir Wind Speed Gust Speed Precip Events Conditions
12:52 AM 50.0 °F 39.9 °F 68% 30.32 in 10.0 mi NNE 4.6 mph - N/A   Partly Cloudy
1:52 AM 50.0 °F 39.9 °F 68% 30.31 in 10.0 mi NE 8.1 mph - N/A   Clear
2:52 AM 48.9 °F 39.9 °F 71% 30.30 in 10.0 mi NE 10.4 mph - N/A   Clear
3:52 AM 48.0 °F 39.9 °F 74% 30.29 in 10.0 mi NE 8.1 mph - N/A   Clear
4:52 AM 48.0 °F 39.0 °F 71% 30.29 in 10.0 mi NE 6.9 mph - N/A   Clear
5:52 AM 48.0 °F 39.0 °F 71% 30.29 in 10.0 mi NE 5.8 mph - N/A   Clear
6:52 AM 46.9 °F 39.0 °F 74% 30.28 in 10.0 mi NE 6.9 mph - N/A   Partly Cloudy
7:52 AM 48.9 °F 39.0 °F 69% 30.31 in 10.0 mi NNE 6.9 mph - N/A   Scattered Clouds
8:21 AM 50.0 °F 39.2 °F 66% 30.31 in 10.0 mi NNE 5.8 mph - N/A   Mostly Cloudy
8:52 AM 51.1 °F 39.9 °F 66% 30.30 in 10.0 mi NE 10.4 mph - N/A   Mostly Cloudy
9:52 AM 54.0 °F 44.1 °F 69% 30.31 in 10.0 mi NE 11.5 mph - N/A   Overcast
10:00 AM 53.6 °F 44.6 °F 72% 30.31 in 10.0 mi NE 9.2 mph - N/A   Overcast
10:49 AM 55.4 °F 48.2 °F 77% 30.31 in 2.0 mi NE 12.7 mph - 0.00 in   Light Drizzle
10:52 AM 55.0 °F 48.0 °F 77% 30.31 in 2.0 mi NE 11.5 mph - 0.00 in   Light Drizzle
11:25 AM 55.4 °F 48.2 °F 77% 30.29 in 9.0 mi Variable 5.8 mph - 0.00 in   Overcast
11:34 AM 55.4 °F 48.2 °F 77% 30.29 in 4.0 mi NNE 9.2 mph - 0.00 in   Light Drizzle
11:43 AM 55.4 °F 48.2 °F 77% 30.29 in 2.0 mi North 9.2 mph - 0.00 in   Light Drizzle
11:52 AM 55.0 °F 50.0 °F 83% 30.29 in 2.0 mi NE 8.1 mph - 0.00 in   Light Drizzle
12:29 PM 55.4 °F 51.8 °F 88% 30.27 in 2.0 mi West 4.6 mph - 0.00 in   Light Drizzle
12:52 PM 55.9 °F 50.0 °F 80% 30.27 in 3.0 mi NNW 5.8 mph - 0.00 in   Overcast
1:52 PM 57.0 °F 50.0 °F 77% 30.24 in 10.0 mi North 9.2 mph - N/A   Overcast
2:43 PM 57.2 °F 50.0 °F 77% 30.22 in 10.0 mi NNW 5.8 mph - N/A   Overcast
2:52 PM 57.9 °F 50.0 °F 75% 30.23 in 10.0 mi NNW 5.8 mph - N/A   Overcast
3:52 PM 60.1 °F 50.0 °F 69% 30.22 in 10.0 mi North 4.6 mph - N/A   Mostly Cloudy
4:52 PM 59.0 °F 50.0 °F 72% 30.22 in 10.0 mi NNW 8.1 mph - N/A   Mostly Cloudy
5:52 PM 57.9 °F 50.0 °F 75% 30.22 in 10.0 mi NW 3.5 mph - N/A   Overcast
6:52 PM 59.0 °F 50.0 °F 72% 30.20 in 10.0 mi North 4.6 mph - N/A   Overcast
7:52 PM 60.1 °F 48.9 °F 67% 30.20 in 10.0 mi NNW 8.1 mph - N/A   Overcast
8:52 PM 60.1 °F 50.0 °F 69% 30.20 in 10.0 mi NNE 4.6 mph - N/A   Overcast
9:52 PM 60.1 °F 48.9 °F 67% 30.20 in 10.0 mi NE 5.8 mph - N/A   Overcast
10:52 PM 60.1 °F 48.9 °F 67% 30.20 in 10.0 mi ENE 6.9 mph - N/A   Overcast
11:52 PM 57.9 °F 50.0 °F 75% 30.19 in 10.0 mi Calm Calm - N/A   Mostly Cloudy